Location: Huesca
(42.1318°N, 0.4078°W)
Time: 08:36:41
(UTC+02:00)

Altair - Pass Details

Date: 15 July 2024
Orbit: 1502 x 1682 km, 47.2° (Epoch: 16 July)

Event Time Altitude Azimuth Distance (km) Brightness Sun altitude
Rises 19:20:41 0° 195° (SSW) 4,730 10.1 22.7°
Reaches altitude 10° 19:24:23 10° 184° (S) 3,723 9.5 22.0°
Maximum altitude 19:31:47 27° 131° (SE) 2,586 8.4 20.6°
Drops below altitude 10° 19:39:03 10° 78° (ENE) 3,661 9.0 19.3°
Sets 19:42:37 0° 67° (ENE) 4,639 9.5 18.7°
